Location: Escondido Hill
(38.9119°N, 104.7815°W)
Time: 04:25:34
(UTC-07:00)

N. Korean satellite - Pass Details

Date: 26 October 2019
Orbit: 456 x 506 km, 97.2° (Epoch: 20 November)

Event Time Altitude Azimuth Distance (km) Brightness Sun altitude
Rises 05:42:09 0° 38° (NE) 2,582 10.8 -19.6°
Reaches altitude 10° 05:46:03 10° 81° (E) 1,703 10.5 -18.8°
Maximum altitude 05:46:43 10° 91° (E) 1,679 10.5 -18.7°
Drops below altitude 10° 05:47:23 10° 102° (ESE) 1,704 10.5 -18.6°
Sets 05:51:17 0° 144° (SE) 2,587 10.8 -17.8°
